Fort Lewis, WA

4:06 AM PDT on June 24, 2017 (GMT -0700)
Gray Army Air Field

Weather History for KGRF - May, 2013

Change the Weather History Date:

Monday, May 13, 2013

  Actual Average Record
Temperature  
Mean Temperature 56 °F -  
Max Temperature 67 °F 62 °F 83 °F (2016)
Min Temperature 46 °F 42 °F 35 °F (2006)
Degree Days  
Heating Degree Days 9    
Growing Degree Days 6 (Base 50)    
Moisture  
Dew Point 53 °F    
Average Humidity 88    
Maximum Humidity 100    
Minimum Humidity 63    
Precipitation  
Precipitation 0.22 in - - ()
Sea Level Pressure  
Sea Level Pressure 30.06 in    
Wind  
Wind Speed 7 mph (SSW)    
Max Wind Speed 23 mph    
Max Gust Speed 33 mph    
Visibility 9 miles    
Events Rain , Thunderstorm    
Averages and records for this station are not official NWS values.
T = Trace of Precipitation, MM = Missing Value Source: NWS Daily Summary

Daily Weather History Graph

Daily Weather History Graph

Search for Another Location

Airport or City:

Trip Planner

Search our weather history database for the weather conditions in past years. The results will help you decide how hot, cold, wet, or windy it might be!

Date:

Astronomy

May. 13, 2013 Rise Set
Actual Time 5:36 AM PDT 8:37 PM PDT
Civil Twilight 5:00 AM PDT 9:13 PM PDT
Nautical Twilight 4:14 AM PDT 9:59 PM PDT
Astronomical Twilight 3:19 AM PDT 10:56 PM PDT
Moon 8:26 AM PDT (5/13) 11:50 PM PDT (5/13)
Length of Visible Light 16h 12m
Length of Day
15h 00m
Waxing Crescent, 13% of the Moon is Illuminated
May 13
Waxing Crescent
May 17
First Quarter
May 24
Full
May 31
Last Quarter
Jun 8
New

Hourly Weather History & Observations

Time (PDT) Temp. Dew Point Humidity Pressure Visibility Wind Dir Wind Speed Gust Speed Precip Events Conditions
12:23 AM 57.2 °F 55.4 °F 94% 30.07 in 8.0 mi South 4.6 mph - N/A   Overcast
12:53 AM 57.2 °F 57.2 °F 100% 30.07 in 10.0 mi SSW 4.6 mph - N/A   Overcast
12:58 AM 56.7 °F 56.5 °F 99% 30.08 in 9.0 mi SSW 5.8 mph - 0.01 in   Overcast
1:03 AM 57.2 °F 55.4 °F 94% 30.07 in 5.0 mi SSW 4.6 mph - N/A   Overcast
1:06 AM 57.2 °F 55.4 °F 94% 30.07 in 4.0 mi SSW 5.8 mph - N/A Rain Light Rain
1:13 AM 57.2 °F 55.4 °F 94% 30.06 in 3.0 mi SSW 3.5 mph - N/A Rain Light Rain
1:28 AM 57.2 °F 55.4 °F 94% 30.06 in 6.0 mi South 4.6 mph - N/A   Light Drizzle
1:31 AM 57.2 °F 55.4 °F 94% 30.06 in 8.0 mi South 5.8 mph - N/A   Overcast
1:36 AM 55.4 °F 55.4 °F 100% 30.06 in 10.0 mi South 3.5 mph - N/A   Overcast
1:41 AM 55.4 °F 55.4 °F 100% 30.06 in 10.0 mi SSE 5.8 mph - N/A   Overcast
1:58 AM 55.9 °F 55.8 °F 99% 30.06 in 10.0 mi SE 6.9 mph - 0.04 in   Overcast
2:13 AM 55.4 °F 55.4 °F 100% 30.06 in 10.0 mi South 4.6 mph - N/A   Overcast
2:15 AM 55.4 °F 55.4 °F 100% 30.06 in 10.0 mi SSW 4.6 mph - N/A   Overcast
2:45 AM 55.4 °F 55.4 °F 100% 30.06 in 10.0 mi SW 4.6 mph - N/A   Overcast
2:58 AM 56.3 °F 55.9 °F 99% 30.06 in 10.0 mi South 3.5 mph - N/A   Overcast
3:31 AM 55.4 °F 55.4 °F 100% 30.05 in 10.0 mi South 3.5 mph - N/A   Overcast
3:51 AM 55.4 °F 55.4 °F 100% 30.04 in 10.0 mi SE 5.8 mph - N/A   Mostly Cloudy
3:56 AM 55.4 °F 55.4 °F 100% 30.03 in 10.0 mi ESE 4.6 mph - N/A   Mostly Cloudy
3:58 AM 55.8 °F 55.6 °F 99% 30.04 in 10.0 mi ESE 4.6 mph - N/A   Mostly Cloudy
4:03 AM 55.4 °F 55.4 °F 100% 30.03 in 10.0 mi Variable 2.3 mph - N/A   Mostly Cloudy
4:18 AM 55.4 °F 55.4 °F 100% 30.04 in 10.0 mi South 2.3 mph - N/A   Overcast
4:48 AM 55.4 °F 55.4 °F 100% 30.03 in 10.0 mi SW 4.6 mph - N/A   Overcast
4:58 AM 56.1 °F 55.9 °F 99% 30.04 in 10.0 mi SW 4.6 mph - N/A   Overcast
5:43 AM 57.2 °F 55.4 °F 94% 30.03 in 10.0 mi SW 4.6 mph - N/A   Overcast
5:58 AM 56.5 °F 56.1 °F 99% 30.04 in 10.0 mi WSW 5.8 mph - N/A   Overcast
6:03 AM 57.2 °F 55.4 °F 94% 30.03 in 10.0 mi SW 5.8 mph - N/A   Overcast
6:51 AM 57.2 °F 57.2 °F 100% 30.02 in 10.0 mi SE 2.3 mph - N/A   Overcast
6:58 AM 56.7 °F 56.3 °F 99% 30.03 in 10.0 mi SE 3.5 mph - 0.01 in   Mostly Cloudy
7:08 AM 57.2 °F 57.2 °F 100% 30.02 in 10.0 mi SW 4.6 mph - N/A   Scattered Clouds
7:58 AM 57.6 °F 56.8 °F 97% 30.03 in 10.0 mi South 5.8 mph - N/A   Scattered Clouds
8:58 AM 59.0 °F 57.4 °F 94% 30.02 in 10.0 mi SW 6.9 mph - N/A   Mostly Cloudy
9:37 AM 59.0 °F 57.2 °F 94% 30.00 in 9.0 mi SW 9.2 mph - N/A   Light Drizzle
9:50 AM 59.0 °F 57.2 °F 94% 30.00 in 10.0 mi SSW 5.8 mph - N/A   Mostly Cloudy
9:58 AM 59.0 °F 57.4 °F 94% 30.01 in 10.0 mi SSW 11.5 mph - 0.00 in   Overcast
10:58 AM 63.3 °F 56.5 °F 78% 29.99 in 10.0 mi South 11.5 mph - N/A   Partly Cloudy
11:58 AM 64.6 °F 52.2 °F 64% 29.97 in 10.0 mi South 15.0 mph 19.6 mph N/A   Mostly Cloudy
1:12 PM 62.6 °F 51.8 °F 68% 29.98 in 1.5 mi SW 18.4 mph 33.4 mph N/A Rain , Thunderstorm Thunderstorms and Rain
1:30 PM 55.4 °F 53.6 °F 94% 30.00 in 7.0 mi South 8.1 mph 23.0 mph N/A Rain Light Rain
1:53 PM 57.2 °F 53.6 °F 88% 30.00 in 10.0 mi South 10.4 mph 23.0 mph N/A Rain Light Rain
1:58 PM 57.0 °F 53.4 °F 88% 30.01 in 10.0 mi South 12.7 mph 23.0 mph 0.11 in   Light Drizzle
2:03 PM 57.2 °F 53.6 °F 88% 30.00 in 10.0 mi South 12.7 mph 21.9 mph N/A   Light Drizzle
2:08 PM 57.2 °F 53.6 °F 88% 30.00 in 10.0 mi SSW 12.7 mph 21.9 mph N/A   Light Drizzle
2:09 PM 57.2 °F 53.6 °F 88% 30.00 in 10.0 mi South 11.5 mph 21.9 mph N/A   Mostly Cloudy
2:29 PM 59.0 °F 53.6 °F 82% 30.01 in 10.0 mi SSW 12.7 mph 25.3 mph N/A   Mostly Cloudy
2:51 PM 59.0 °F 51.8 °F 77% 30.02 in 10.0 mi SSW 16.1 mph 23.0 mph N/A Rain Light Rain
2:58 PM 58.1 °F 52.2 °F 81% 30.04 in 10.0 mi SSW 13.8 mph 25.3 mph 0.00 in Rain Light Rain
3:01 PM 57.2 °F 51.8 °F 82% 30.02 in 10.0 mi SSW 21.9 mph 29.9 mph N/A   Overcast
3:16 PM 59.0 °F 50.0 °F 72% 30.03 in 10.0 mi SSW 19.6 mph 31.1 mph N/A   Mostly Cloudy
3:21 PM 57.2 °F 50.0 °F 77% 30.03 in 10.0 mi SSW 23.0 mph 32.2 mph N/A Rain Light Rain
3:41 PM 55.4 °F 50.0 °F 82% 30.04 in 10.0 mi SSW 13.8 mph 20.7 mph N/A   Mostly Cloudy
3:58 PM 57.7 °F 51.6 °F 80% 30.05 in 10.0 mi South 13.8 mph 18.4 mph 0.01 in   Mostly Cloudy
4:19 PM 55.4 °F 48.2 °F 77% 30.05 in 5.0 mi SW 20.7 mph 33.4 mph N/A Rain Light Rain
4:58 PM 54.0 °F 49.5 °F 85% 30.09 in 10.0 mi SSW 12.7 mph - 0.04 in   Mostly Cloudy
5:24 PM 55.4 °F 50.0 °F 82% 30.10 in 10.0 mi WSW 12.7 mph 19.6 mph N/A   Scattered Clouds
5:34 PM 53.6 °F 46.4 °F 77% 30.10 in 10.0 mi WSW 12.7 mph 21.9 mph N/A   Mostly Cloudy
5:54 PM 53.6 °F 46.4 °F 77% 30.11 in 10.0 mi SSW 9.2 mph - N/A   Overcast
5:58 PM 54.3 °F 46.0 °F 74% 30.12 in 10.0 mi SSW 10.4 mph - N/A   Overcast
6:58 PM 54.9 °F 43.0 °F 64% 30.15 in 10.0 mi SW 15.0 mph 23.0 mph N/A   Overcast
6:59 PM 55.4 °F 42.8 °F 63% 30.14 in 10.0 mi South 16.1 mph 23.0 mph N/A   Mostly Cloudy
7:58 PM 53.2 °F 42.1 °F 66% 30.19 in 10.0 mi South 9.2 mph - N/A   Scattered Clouds
8:58 PM 51.3 °F 40.5 °F 67% 30.22 in 10.0 mi South 9.2 mph - N/A   Partly Cloudy
9:58 PM 49.8 °F 40.6 °F 71% 30.22 in 10.0 mi South 11.5 mph - N/A   Clear
10:58 PM 48.9 °F 41.2 °F 75% 30.22 in 10.0 mi South 9.2 mph - N/A   Clear
11:58 PM 46.8 °F 41.9 °F 83% 30.22 in 10.0 mi South 6.9 mph - N/A   Clear